Starlink 30383

operational
NORAD ID: 57773 Int'l Des: 2023-134 Owner: SPXS Country: US Constellation: starlink
LEOCIRCULAR

Über Starlink 30383

Beschreibung wird geladen...

Live-Position

3D-Globus wird geladen...

Nächste Überflüge

Höhenverlauf

Altitude vs Time

uPlot chart will show altitude changes over time

Zweizeiliger Elementsatz

1 57773U 23134C 25353.16031515 -.00000013 00000-0 14087-4 0 9991
2 57773 43.0042 275.4183 0001053 276.0716 84.0006 15.02531897127359
Epoch: 19. Dez. 2025 • Age: 13 hours

Aktueller Status

Höhe 561.8 km
Geschwindigkeit 7.58 km/s
Subsatellitenpunkt -15.58°S, 80.9°W
Startdatum 4. Sept. 2023
Alter 2.2 years
Typ internet

Technische Details

Klassifizierung Payload
Masse 730.00 kg
Trockenmasse 700.00 kg
Gesamtmasse 730.00 kg
Länge 0.30 m
Durchmesser 4.10 m
Spannweite 29.00 m
Form Box + pan
Hersteller SPXS
Bus-Typ Starlink V2M
Phasenstatus In Orbit
Besitzer/Staat SPXS/US

Große Konstellationen

Loading constellations...